Time,TemperatureF,DewpointF,PressureIn,WindDirection,WindDirectionDegrees,WindSpeedMPH,WindSpeedGustMPH,Humidity,HourlyPrecipIn,Conditions,Clouds,dailyrainin,SoftwareType,DateUTC
2013-07-19 00:02:00,78.5,73.3,29.93,WNW,291,0.0,0.0,84,0.00,CLR,,0.00,WeatherDisplay:10.37,2013-07-19 05:02:00,
2013-07-19 00:07:00,78.5,73.3,29.93,WNW,291,0.0,0.0,84,0.00,CLR,,0.00,WeatherDisplay:10.37,2013-07-19 05:07:00,
2013-07-19 00:12:00,78.3,73.1,29.93,WNW,291,0.0,0.0,84,0.00,CLR,,0.00,WeatherDisplay:10.37,2013-07-19 05:12:00,
2013-07-19 00:17:00,78.3,73.1,29.93,WNW,291,0.0,0.0,84,0.00,CLR,,0.00,WeatherDisplay:10.37,2013-07-19 05:17:00,
2013-07-19 00:22:00,78.3,73.1,29.93,WNW,291,0.0,0.0,84,0.00,CLR,,0.00,WeatherDisplay:10.37,2013-07-19 05:22:00,
2013-07-19 00:27:00,78.1,72.9,29.93,WNW,291,0.0,0.0,84,0.00,CLR,,0.00,WeatherDisplay:10.37,2013-07-19 05:27:00,
2013-07-19 00:32:00,78.1,72.9,29.93,WNW,291,0.0,0.0,84,0.00,CLR,,0.00,WeatherDisplay:10.37,2013-07-19 05:32:00,
2013-07-19 00:37:00,78.1,72.5,29.92,WNW,291,0.0,0.0,83,0.00,CLR,,0.00,WeatherDisplay:10.37,2013-07-19 05:37:00,
2013-07-19 00:42:00,77.9,72.3,29.92,WNW,291,0.0,0.0,83,0.00,CLR,,0.00,WeatherDisplay:10.37,2013-07-19 05:42:00,
2013-07-19 00:47:00,78.1,72.5,29.92,WNW,291,0.0,0.0,83,0.00,CLR,,0.00,WeatherDisplay:10.37,2013-07-19 05:47:00,
2013-07-19 00:52:00,78.1,72.5,29.92,WNW,291,0.0,0.0,83,0.00,CLR,,0.00,WeatherDisplay:10.37,2013-07-19 05:52:00,
2013-07-19 00:57:00,78.1,72.5,29.92,WNW,291,0.0,0.0,83,0.00,CLR,,0.00,WeatherDisplay:10.37,2013-07-19 05:57:00,
2013-07-19 01:02:00,78.1,72.5,29.92,WNW,291,0.0,0.0,83,0.00,CLR,,0.00,WeatherDisplay:10.37,2013-07-19 06:02:00,
2013-07-19 01:07:00,78.1,72.2,29.91,WNW,291,0.1,1.1,82,0.00,CLR,,0.00,WeatherDisplay:10.37,2013-07-19 06:07:00,
2013-07-19 01:12:00,78.1,72.2,29.91,WNW,291,0.0,0.0,82,0.00,CLR,,0.00,WeatherDisplay:10.37,2013-07-19 06:12:00,
2013-07-19 01:17:00,78.1,72.2,29.91,WNW,291,0.0,0.0,82,0.00,CLR,,0.00,WeatherDisplay:10.37,2013-07-19 06:17:00,
2013-07-19 01:22:00,78.1,72.2,29.91,WNW,291,0.0,0.0,82,0.00,CLR,,0.00,WeatherDisplay:10.37,2013-07-19 06:22:00,
2013-07-19 01:27:00,78.1,72.2,29.91,WNW,291,0.0,0.0,82,0.00,CLR,,0.00,WeatherDisplay:10.37,2013-07-19 06:27:00,
2013-07-19 01:32:00,78.1,72.2,29.91,WNW,291,0.0,0.0,82,0.00,CLR,,0.00,WeatherDisplay:10.37,2013-07-19 06:32:00,
2013-07-19 01:37:00,77.9,72.0,29.91,WNW,291,0.0,0.0,82,0.00,CLR,,0.00,WeatherDisplay:10.37,2013-07-19 06:37:00,
2013-07-19 01:42:00,77.9,72.0,29.91,WNW,291,0.0,0.0,82,0.00,CLR,,0.00,WeatherDisplay:10.37,2013-07-19 06:42:00,
2013-07-19 01:47:00,77.7,71.8,29.90,WNW,291,0.0,0.0,82,0.00,CLR,,0.00,WeatherDisplay:10.37,2013-07-19 06:47:00,
2013-07-19 01:52:00,77.7,71.8,29.90,WNW,291,0.0,0.0,82,0.00,CLR,,0.00,WeatherDisplay:10.37,2013-07-19 06:52:00,
2013-07-19 01:57:00,77.6,71.7,29.90,WNW,291,0.0,0.0,82,0.00,CLR,,0.00,WeatherDisplay:10.37,2013-07-19 06:57:00,
2013-07-19 02:02:00,77.6,71.7,29.90,WNW,291,0.0,0.0,82,0.00,CLR,,0.00,WeatherDisplay:10.37,2013-07-19 07:02:00,
2013-07-19 02:07:00,77.4,71.8,29.90,WNW,291,0.0,0.0,83,0.00,CLR,,0.00,WeatherDisplay:10.37,2013-07-19 07:07:00,
2013-07-19 02:12:00,77.2,71.6,29.90,WNW,291,0.0,0.0,83,0.00,CLR,,0.00,WeatherDisplay:10.37,2013-07-19 07:12:00,
2013-07-19 02:17:00,77.2,71.6,29.90,WNW,291,0.0,0.0,83,0.00,CLR,,0.00,WeatherDisplay:10.37,2013-07-19 07:17:00,
2013-07-19 02:22:00,77.0,71.4,29.90,WNW,291,0.0,0.0,83,0.00,CLR,,0.00,WeatherDisplay:10.37,2013-07-19 07:22:00,
2013-07-19 02:27:00,77.0,71.8,29.90,WNW,291,0.0,0.0,84,0.00,CLR,,0.00,WeatherDisplay:10.37,2013-07-19 07:27:00,
2013-07-19 02:32:00,76.8,71.6,29.90,WNW,291,0.0,0.0,84,0.00,CLR,,0.00,WeatherDisplay:10.37,2013-07-19 07:32:00,
2013-07-19 02:37:00,76.8,71.9,29.89,WNW,291,0.0,0.0,85,0.00,CLR,,0.00,WeatherDisplay:10.37,2013-07-19 07:37:00,
2013-07-19 02:42:00,76.8,71.9,29.89,WNW,291,0.0,0.0,85,0.00,CLR,,0.00,WeatherDisplay:10.37,2013-07-19 07:42:00,
2013-07-19 02:47:00,76.8,71.9,29.89,WNW,291,0.0,0.0,85,0.00,CLR,,0.00,WeatherDisplay:10.37,2013-07-19 07:47:00,
2013-07-19 02:52:00,76.8,71.9,29.89,WNW,291,0.0,0.0,85,0.00,CLR,,0.00,WeatherDisplay:10.37,2013-07-19 07:52:00,
2013-07-19 02:57:00,76.8,71.9,29.89,WNW,291,0.0,0.0,85,0.00,CLR,,0.00,WeatherDisplay:10.37,2013-07-19 07:57:00,
2013-07-19 03:02:00,76.8,71.9,29.89,WNW,291,0.0,0.0,85,0.00,CLR,,0.00,WeatherDisplay:10.37,2013-07-19 08:02:00,
2013-07-19 03:07:00,76.8,71.9,29.89,WNW,291,0.0,0.0,85,0.00,CLR,,0.00,WeatherDisplay:10.37,2013-07-19 08:07:00,
2013-07-19 03:12:00,76.7,71.8,29.89,WNW,291,0.1,1.5,85,0.00,CLR,,0.00,WeatherDisplay:10.37,2013-07-19 08:12:00,
2013-07-19 03:17:00,76.8,71.9,29.89,WNW,291,0.0,0.0,85,0.00,CLR,,0.00,WeatherDisplay:10.37,2013-07-19 08:17:00,
2013-07-19 03:22:00,76.8,71.9,29.89,WNW,291,0.0,0.0,85,0.00,CLR,,0.00,WeatherDisplay:10.37,2013-07-19 08:22:00,
2013-07-19 03:27:00,76.8,71.9,29.88,WNW,291,0.0,0.0,85,0.00,CLR,,0.00,WeatherDisplay:10.37,2013-07-19 08:27:00,
2013-07-19 03:32:00,76.8,71.9,29.88,WNW,291,0.0,0.0,85,0.00,CLR,,0.00,WeatherDisplay:10.37,2013-07-19 08:32:00,
2013-07-19 03:37:00,76.7,72.2,29.88,WNW,291,0.0,0.0,86,0.00,CLR,,0.00,WeatherDisplay:10.37,2013-07-19 08:37:00,
2013-07-19 03:42:00,76.7,72.2,29.88,WNW,291,0.0,0.0,86,0.00,CLR,,0.00,WeatherDisplay:10.37,2013-07-19 08:42:00,
2013-07-19 03:47:00,76.7,72.2,29.88,WNW,291,0.0,0.0,86,0.00,CLR,,0.00,WeatherDisplay:10.37,2013-07-19 08:47:00,
2013-07-19 03:52:00,76.8,72.3,29.88,North,11,0.2,0.0,86,0.00,CLR,,0.00,WeatherDisplay:10.37,2013-07-19 08:52:00,
2013-07-19 03:57:00,76.8,72.3,29.88,North,11,0.0,0.0,86,0.00,CLR,,0.00,WeatherDisplay:10.37,2013-07-19 08:57:00,
2013-07-19 04:02:00,76.8,72.3,29.88,North,11,0.0,1.1,86,0.00,CLR,,0.00,WeatherDisplay:10.37,2013-07-19 09:02:00,
2013-07-19 04:07:00,76.8,72.3,29.88,North,11,0.0,0.0,86,0.00,CLR,,0.00,WeatherDisplay:10.37,2013-07-19 09:07:00,
2013-07-19 04:12:00,76.8,72.3,29.89,North,11,0.0,0.0,86,0.00,CLR,,0.00,WeatherDisplay:10.37,2013-07-19 09:12:00,
2013-07-19 04:17:00,76.8,72.3,29.89,North,11,0.0,0.0,86,0.00,CLR,,0.00,WeatherDisplay:10.37,2013-07-19 09:17:00,
2013-07-19 04:22:00,76.8,72.3,29.88,NNE,12,0.0,0.0,86,0.00,CLR,,0.00,WeatherDisplay:10.37,2013-07-19 09:22:00,
2013-07-19 04:27:00,76.7,72.2,29.88,North,11,0.0,0.0,86,0.00,CLR,,0.00,WeatherDisplay:10.37,2013-07-19 09:27:00,
2013-07-19 04:32:00,76.7,72.2,29.89,NNE,12,0.0,0.0,86,0.00,CLR,,0.00,WeatherDisplay:10.37,2013-07-19 09:32:00,
2013-07-19 04:37:00,76.7,72.2,29.88,NNE,12,0.0,0.0,86,0.00,CLR,,0.00,WeatherDisplay:10.37,2013-07-19 09:37:00,
2013-07-19 04:42:00,76.5,72.3,29.88,North,11,0.0,0.0,87,0.00,CLR,,0.00,WeatherDisplay:10.37,2013-07-19 09:42:00,
2013-07-19 04:47:00,76.5,72.3,29.88,North,11,0.0,0.0,87,0.00,CLR,,0.00,WeatherDisplay:10.37,2013-07-19 09:47:00,
2013-07-19 04:52:00,76.3,72.1,29.88,NNE,14,0.4,0.0,87,0.00,CLR,,0.00,WeatherDisplay:10.37,2013-07-19 09:52:00,
2013-07-19 04:57:00,76.3,72.1,29.88,NNE,14,0.0,0.0,87,0.00,CLR,,0.00,WeatherDisplay:10.37,2013-07-19 09:57:00,
2013-07-19 05:02:00,76.3,72.1,29.88,ESE,103,0.0,0.0,87,0.00,CLR,,0.00,WeatherDisplay:10.37,2013-07-19 10:02:00,
2013-07-19 05:07:00,76.3,72.1,29.88,ESE,103,0.0,0.0,87,0.00,CLR,,0.00,WeatherDisplay:10.37,2013-07-19 10:07:00,
2013-07-19 05:12:00,76.1,71.9,29.88,ESE,103,0.0,0.0,87,0.00,CLR,,0.00,WeatherDisplay:10.37,2013-07-19 10:12:00,
2013-07-19 05:17:00,76.1,71.9,29.88,ESE,103,0.0,0.0,87,0.00,CLR,,0.00,WeatherDisplay:10.37,2013-07-19 10:17:00,
2013-07-19 05:22:00,76.1,71.9,29.88,ESE,103,0.0,0.0,87,0.00,CLR,,0.00,WeatherDisplay:10.37,2013-07-19 10:22:00,
2013-07-19 05:27:00,76.1,71.9,29.89,ESE,103,0.0,0.0,87,0.00,CLR,,0.00,WeatherDisplay:10.37,2013-07-19 10:27:00,
2013-07-19 05:32:00,76.1,71.9,29.88,ESE,103,0.0,0.0,87,0.00,CLR,,0.00,WeatherDisplay:10.37,2013-07-19 10:32:00,
2013-07-19 05:37:00,76.1,71.9,29.88,ESE,103,0.0,0.0,87,0.00,CLR,,0.00,WeatherDisplay:10.37,2013-07-19 10:37:00,
2013-07-19 05:42:00,76.1,71.9,29.89,ESE,103,0.0,0.0,87,0.00,CLR,,0.00,WeatherDisplay:10.37,2013-07-19 10:42:00,
2013-07-19 05:47:00,76.0,71.8,29.89,ESE,103,0.0,0.0,87,0.00,CLR,,0.00,WeatherDisplay:10.37,2013-07-19 10:47:00,
2013-07-19 05:52:00,76.0,71.8,29.89,ESE,103,0.0,0.0,87,0.00,CLR,,0.00,WeatherDisplay:10.37,2013-07-19 10:52:00,
2013-07-19 05:57:00,76.0,71.8,29.89,ESE,103,0.0,0.0,87,0.00,CLR,,0.00,WeatherDisplay:10.37,2013-07-19 10:57:00,
2013-07-19 06:02:00,76.0,71.8,29.89,ESE,103,0.0,0.0,87,0.00,CLR,,0.00,WeatherDisplay:10.37,2013-07-19 11:02:00,
2013-07-19 06:07:00,76.1,71.9,29.89,SSW,194,0.2,1.1,87,0.00,CLR,,0.00,WeatherDisplay:10.37,2013-07-19 11:07:00,
2013-07-19 06:13:00,76.1,71.9,29.89,SE,128,0.2,3.5,87,0.00,CLR,,0.00,WeatherDisplay:10.37,2013-07-19 11:13:00,
2013-07-19 06:18:00,76.1,71.9,29.89,SE,128,0.0,0.0,87,0.00,CLR,,0.00,WeatherDisplay:10.37,2013-07-19 11:18:00,
2013-07-19 06:23:00,76.3,72.1,29.89,SE,128,0.0,0.0,87,0.00,CLR,,0.00,WeatherDisplay:10.37,2013-07-19 11:23:00,
2013-07-19 06:28:00,76.3,72.1,29.89,SE,128,0.0,0.0,87,0.00,CLR,,0.00,WeatherDisplay:10.37,2013-07-19 11:28:00,
2013-07-19 06:33:00,76.5,72.0,29.89,SE,128,0.0,0.0,86,0.00,CLR,,0.00,WeatherDisplay:10.37,2013-07-19 11:33:00,
2013-07-19 06:38:00,76.5,72.0,29.89,SE,128,0.0,0.0,86,0.00,CLR,,0.00,WeatherDisplay:10.37,2013-07-19 11:38:00,
2013-07-19 06:43:00,76.7,72.2,29.89,SE,128,0.0,0.0,86,0.00,CLR,,0.00,WeatherDisplay:10.37,2013-07-19 11:43:00,
2013-07-19 06:48:00,76.8,72.3,29.89,SE,128,0.0,0.0,86,0.00,CLR,,0.00,WeatherDisplay:10.37,2013-07-19 11:48:00,
2013-07-19 06:53:00,77.0,72.1,29.89,SE,128,0.0,0.0,85,0.00,CLR,,0.00,WeatherDisplay:10.37,2013-07-19 11:53:00,
2013-07-19 06:58:00,77.2,72.3,29.89,SE,128,0.3,1.1,85,0.00,CLR,,0.00,WeatherDisplay:10.37,2013-07-19 11:58:00,
2013-07-19 07:03:00,77.4,72.5,29.89,SE,128,0.2,1.1,85,0.00,CLR,,0.00,WeatherDisplay:10.37,2013-07-19 12:03:00,
2013-07-19 07:08:00,77.6,72.7,29.90,SE,128,0.0,0.0,85,0.00,CLR,,0.00,WeatherDisplay:10.37,2013-07-19 12:08:00,
2013-07-19 07:13:00,77.7,72.8,29.90,SE,128,0.0,0.0,85,0.00,CLR,,0.00,WeatherDisplay:10.37,2013-07-19 12:13:00,
2013-07-19 07:18:00,78.1,72.9,29.90,SE,128,0.2,1.1,84,0.00,CLR,,0.00,WeatherDisplay:10.37,2013-07-19 12:18:00,
2013-07-19 07:23:00,78.3,73.1,29.90,SE,128,0.0,0.0,84,0.00,CLR,,0.00,WeatherDisplay:10.37,2013-07-19 12:23:00,
2013-07-19 07:28:00,78.5,72.9,29.90,ESE,120,1.4,1.4,83,0.00,CLR,,0.00,WeatherDisplay:10.37,2013-07-19 12:28:00,
2013-07-19 07:33:00,78.8,73.2,29.90,ESE,120,0.0,1.1,83,0.00,CLR,,0.00,WeatherDisplay:10.37,2013-07-19 12:33:00,
2013-07-19 07:38:00,79.0,73.0,29.90,ESE,120,0.0,1.1,82,0.00,CLR,,0.00,WeatherDisplay:10.37,2013-07-19 12:38:00,
2013-07-19 07:43:00,79.2,73.2,29.90,NNE,23,0.0,0.0,82,0.00,CLR,,0.00,WeatherDisplay:10.37,2013-07-19 12:43:00,
2013-07-19 07:48:00,79.4,73.4,29.90,SW,236,2.1,4.6,82,0.00,CLR,,0.00,WeatherDisplay:10.37,2013-07-19 12:48:00,
2013-07-19 07:53:00,79.6,73.6,29.90,WNW,288,0.8,3.0,82,0.00,CLR,,0.00,WeatherDisplay:10.37,2013-07-19 12:53:00,
2013-07-19 07:58:00,79.8,73.4,29.90,SSE,159,0.4,3.5,81,0.00,CLR,,0.00,WeatherDisplay:10.37,2013-07-19 12:58:00,
2013-07-19 08:03:00,79.9,73.5,29.90,SSE,159,0.0,0.0,81,0.00,CLR,,0.00,WeatherDisplay:10.37,2013-07-19 13:03:00,
2013-07-19 08:08:00,80.1,73.4,29.90,NW,312,0.8,3.5,80,0.00,CLR,,0.00,WeatherDisplay:10.37,2013-07-19 13:08:00,
2013-07-19 08:13:00,80.3,73.6,29.90,SE,140,1.6,4.6,80,0.00,CLR,,0.00,WeatherDisplay:10.37,2013-07-19 13:13:00,
2013-07-19 08:18:00,80.5,73.4,29.90,SE,143,1.5,4.6,79,0.00,CLR,,0.00,WeatherDisplay:10.37,2013-07-19 13:18:00,
2013-07-19 08:23:00,80.7,73.6,29.90,SW,236,1.2,3.5,79,0.00,CLR,,0.00,WeatherDisplay:10.37,2013-07-19 13:23:00,
2013-07-19 08:26:00,80.9,73.8,29.90,SSE,164,0.0,1.1,79,0.00,CLR,,0.00,WeatherDisplay:10.37,2013-07-19 13:26:00,
2013-07-19 08:31:00,81.1,73.6,29.90,ENE,64,4.4,10.4,78,0.00,CLR,,0.00,WeatherDisplay:10.37,2013-07-19 13:31:00,
2013-07-19 08:36:00,81.2,73.3,29.90,ESE,108,1.6,4.6,77,0.00,CLR,,0.00,WeatherDisplay:10.37,2013-07-19 13:36:00,
2013-07-19 08:41:00,81.4,73.5,29.90,ESE,123,0.8,3.5,77,0.00,CLR,,0.00,WeatherDisplay:10.37,2013-07-19 13:41:00,
2013-07-19 08:46:00,81.6,73.7,29.90,SSE,152,1.8,4.6,77,0.00,CLR,,0.00,WeatherDisplay:10.37,2013-07-19 13:46:00,
2013-07-19 08:51:00,81.8,73.9,29.90,WSW,239,3.9,5.8,77,0.00,CLR,,0.00,WeatherDisplay:10.37,2013-07-19 13:51:00,
2013-07-19 08:56:00,82.0,73.7,29.90,SW,225,1.4,4.6,76,0.00,CLR,,0.00,WeatherDisplay:10.37,2013-07-19 13:56:00,
2013-07-19 09:01:00,82.4,74.1,29.91,West,261,0.2,1.5,76,0.00,CLR,,0.00,WeatherDisplay:10.37,2013-07-19 14:01:00,
2013-07-19 09:06:00,82.4,73.7,29.91,NNW,345,0.3,3.5,75,0.00,CLR,,0.00,WeatherDisplay:10.37,2013-07-19 14:06:00,
2013-07-19 09:11:00,82.6,73.9,29.91,SSE,159,3.1,4.6,75,0.00,CLR,,0.00,WeatherDisplay:10.37,2013-07-19 14:11:00,
2013-07-19 09:16:00,82.8,73.7,29.91,ESE,104,1.7,3.0,74,0.00,CLR,,0.00,WeatherDisplay:10.37,2013-07-19 14:16:00,
2013-07-19 09:21:00,82.8,73.7,29.91,SE,128,1.6,4.6,74,0.00,CLR,,0.00,WeatherDisplay:10.37,2013-07-19 14:21:00,
2013-07-19 09:26:00,83.2,74.0,29.91,SSW,194,3.2,5.8,74,0.00,CLR,,0.00,WeatherDisplay:10.37,2013-07-19 14:26:00,
2013-07-19 09:31:00,83.6,74.4,29.91,NNW,338,1.3,4.6,74,0.00,CLR,,0.00,WeatherDisplay:10.37,2013-07-19 14:31:00,
2013-07-19 09:36:00,83.8,74.2,29.90,SE,134,0.5,1.1,73,0.00,CLR,,0.00,WeatherDisplay:10.37,2013-07-19 14:36:00,
2013-07-19 09:41:00,84.3,75.1,29.90,South,176,0.9,1.5,74,0.00,CLR,,0.00,WeatherDisplay:10.37,2013-07-19 14:41:00,
2013-07-19 09:46:00,84.9,74.9,29.90,South,190,1.6,9.2,72,0.00,CLR,,0.00,WeatherDisplay:10.37,2013-07-19 14:46:00,
2013-07-19 09:51:00,85.3,75.2,29.90,ESE,112,3.4,4.6,72,0.00,CLR,,0.00,WeatherDisplay:10.37,2013-07-19 14:51:00,
2013-07-19 09:56:00,85.7,75.2,29.90,ESE,107,1.5,3.5,71,0.00,CLR,,0.00,WeatherDisplay:10.37,2013-07-19 14:56:00,
2013-07-19 10:01:00,85.9,75.0,29.90,ESE,111,2.4,4.6,70,0.00,CLR,,0.00,WeatherDisplay:10.37,2013-07-19 15:01:00,
2013-07-19 10:06:00,86.3,74.9,29.89,South,173,3.2,10.4,69,0.00,CLR,,0.00,WeatherDisplay:10.37,2013-07-19 15:06:00,
2013-07-19 10:11:00,86.5,75.1,29.89,East,86,1.8,1.8,69,0.00,CLR,,0.00,WeatherDisplay:10.37,2013-07-19 15:11:00,
2013-07-19 10:16:00,86.5,74.7,29.89,SE,137,4.6,5.8,68,0.00,CLR,,0.00,WeatherDisplay:10.37,2013-07-19 15:16:00,
2013-07-19 10:21:00,86.5,74.2,29.89,ESE,108,1.4,10.4,67,0.00,CLR,,0.00,WeatherDisplay:10.37,2013-07-19 15:21:00,
2013-07-19 10:26:00,86.7,74.0,29.89,ESE,110,7.2,8.1,66,0.00,CLR,,0.00,WeatherDisplay:10.37,2013-07-19 15:26:00,
2013-07-19 10:31:00,87.2,74.9,29.89,West,278,2.6,6.0,67,0.00,CLR,,0.00,WeatherDisplay:10.37,2013-07-19 15:31:00,
2013-07-19 10:36:00,87.6,74.8,29.89,East,93,1.0,3.5,66,0.00,CLR,,0.00,WeatherDisplay:10.37,2013-07-19 15:36:00,
2013-07-19 10:41:00,88.2,75.4,29.89,SW,216,2.1,7.5,66,0.00,CLR,,0.00,WeatherDisplay:10.37,2013-07-19 15:41:00,
2013-07-19 10:46:00,88.4,75.1,29.89,South,190,0.4,1.1,65,0.00,CLR,,0.00,WeatherDisplay:10.37,2013-07-19 15:46:00,
2013-07-19 10:51:00,88.8,75.0,29.89,SE,135,3.6,5.8,64,0.00,CLR,,0.00,WeatherDisplay:10.37,2013-07-19 15:51:00,
2013-07-19 10:56:00,88.8,75.0,29.89,South,171,1.3,5.8,64,0.00,CLR,,0.00,WeatherDisplay:10.37,2013-07-19 15:56:00,
2013-07-19 11:02:00,88.4,74.2,29.89,ESE,121,2.5,3.5,63,0.00,CLR,,0.00,WeatherDisplay:10.37,2013-07-19 16:02:00,
2013-07-19 11:07:00,88.4,74.7,29.89,East,93,1.3,1.3,64,0.00,CLR,,0.00,WeatherDisplay:10.37,2013-07-19 16:07:00,
2013-07-19 11:12:00,88.6,74.4,29.89,SE,126,4.5,5.8,63,0.00,CLR,,0.00,WeatherDisplay:10.37,2013-07-19 16:12:00,
2013-07-19 11:17:00,88.6,73.9,29.89,ENE,64,2.6,4.6,62,0.00,CLR,,0.00,WeatherDisplay:10.37,2013-07-19 16:17:00,
2013-07-19 11:22:00,88.8,74.6,29.89,ESE,115,0.8,3.5,63,0.00,CLR,,0.00,WeatherDisplay:10.37,2013-07-19 16:22:00,
2013-07-19 11:27:00,89.3,74.1,29.89,SE,127,5.9,5.9,61,0.00,CLR,,0.00,WeatherDisplay:10.37,2013-07-19 16:27:00,
2013-07-19 11:32:00,89.0,74.3,29.88,SE,141,2.1,5.8,62,0.00,CLR,,0.00,WeatherDisplay:10.37,2013-07-19 16:32:00,
2013-07-19 11:37:00,89.3,74.1,29.88,ESE,107,4.2,5.8,61,0.00,CLR,,0.00,WeatherDisplay:10.37,2013-07-19 16:37:00,
2013-07-19 11:42:00,89.5,72.8,29.88,West,261,1.4,5.8,58,0.00,CLR,,0.00,WeatherDisplay:10.37,2013-07-19 16:42:00,
2013-07-19 11:47:00,90.1,74.3,29.88,ESE,103,0.1,1.1,60,0.00,CLR,,0.00,WeatherDisplay:10.37,2013-07-19 16:47:00,
2013-07-19 11:52:00,90.3,74.0,29.88,South,172,1.2,3.5,59,0.00,CLR,,0.00,WeatherDisplay:10.37,2013-07-19 16:52:00,
2013-07-19 11:57:00,90.7,75.4,29.87,SSE,162,0.1,1.1,61,0.00,CLR,,0.00,WeatherDisplay:10.37,2013-07-19 16:57:00,
2013-07-19 12:02:00,91.2,74.9,29.87,SE,128,1.6,3.5,59,0.00,CLR,,0.00,WeatherDisplay:10.37,2013-07-19 17:02:00,
2013-07-19 12:07:00,91.4,74.0,29.87,South,175,1.6,3.5,57,0.00,CLR,,0.00,WeatherDisplay:10.37,2013-07-19 17:07:00,
2013-07-19 12:12:00,91.4,73.5,29.87,SSE,163,2.8,4.6,56,0.00,CLR,,0.00,WeatherDisplay:10.37,2013-07-19 17:12:00,
2013-07-19 12:17:00,91.2,74.4,29.87,SE,142,0.2,5.8,58,0.00,CLR,,0.00,WeatherDisplay:10.37,2013-07-19 17:17:00,
2013-07-19 12:22:00,91.6,74.7,29.86,SSE,164,0.5,1.5,58,0.00,CLR,,0.00,WeatherDisplay:10.37,2013-07-19 17:22:00,
2013-07-19 12:27:00,91.8,73.3,29.86,ESE,119,6.9,10.4,55,0.00,CLR,,0.00,WeatherDisplay:10.37,2013-07-19 17:27:00,
2013-07-19 12:32:00,91.4,74.0,29.86,ESE,107,3.8,4.6,57,0.00,CLR,,0.00,WeatherDisplay:10.37,2013-07-19 17:32:00,
2013-07-19 12:37:00,91.0,73.7,29.86,East,80,1.2,3.5,57,0.00,CLR,,0.00,WeatherDisplay:10.37,2013-07-19 17:37:00,
2013-07-19 12:42:00,91.0,73.7,29.86,South,177,2.9,8.1,57,0.00,CLR,,0.00,WeatherDisplay:10.37,2013-07-19 17:42:00,
2013-07-19 12:47:00,91.2,73.8,29.86,SSW,213,1.4,1.4,57,0.00,CLR,,0.00,WeatherDisplay:10.37,2013-07-19 17:47:00,
2013-07-19 12:52:00,91.6,73.7,29.85,ENE,65,2.7,8.1,56,0.00,CLR,,0.00,WeatherDisplay:10.37,2013-07-19 17:52:00,
2013-07-19 12:57:00,91.4,72.4,29.85,ESE,120,6.0,10.4,54,0.00,CLR,,0.00,WeatherDisplay:10.37,2013-07-19 17:57:00,
2013-07-19 13:02:00,91.2,72.2,29.85,SE,146,3.7,8.1,54,0.00,CLR,,0.00,WeatherDisplay:10.37,2013-07-19 18:02:00,
2013-07-19 13:07:00,91.4,74.0,29.84,ESE,109,2.6,4.6,57,0.00,CLR,,0.00,WeatherDisplay:10.37,2013-07-19 18:07:00,
2013-07-19 13:12:00,91.6,73.7,29.84,SE,130,4.0,5.8,56,0.00,CLR,,0.00,WeatherDisplay:10.37,2013-07-19 18:12:00,
2013-07-19 13:17:00,91.6,74.7,29.84,South,184,4.3,4.6,58,0.00,CLR,,0.00,WeatherDisplay:10.37,2013-07-19 18:17:00,
2013-07-19 13:22:00,91.6,74.2,29.84,WSW,239,2.5,5.8,57,0.00,CLR,,0.00,WeatherDisplay:10.37,2013-07-19 18:22:00,
2013-07-19 13:27:00,91.6,74.2,29.84,ESE,119,2.0,4.5,57,0.00,CLR,,0.00,WeatherDisplay:10.37,2013-07-19 18:27:00,
2013-07-19 13:32:00,91.6,73.7,29.84,South,171,4.3,4.6,56,0.00,CLR,,0.00,WeatherDisplay:10.37,2013-07-19 18:32:00,
2013-07-19 13:37:00,91.6,74.2,29.84,South,170,3.8,8.1,57,0.00,CLR,,0.00,WeatherDisplay:10.37,2013-07-19 18:37:00,
2013-07-19 13:42:00,91.4,73.5,29.83,SE,129,2.2,3.5,56,0.00,CLR,,0.00,WeatherDisplay:10.37,2013-07-19 18:42:00,
2013-07-19 13:47:00,91.4,73.0,29.83,WSW,243,4.7,8.1,55,0.00,CLR,,0.00,WeatherDisplay:10.37,2013-07-19 18:47:00,
2013-07-19 13:52:00,91.6,73.7,29.83,NNE,24,1.8,4.6,56,0.00,CLR,,0.00,WeatherDisplay:10.37,2013-07-19 18:52:00,
2013-07-19 13:57:00,91.6,73.7,29.83,East,94,0.4,5.8,56,0.00,CLR,,0.00,WeatherDisplay:10.37,2013-07-19 18:57:00,
2013-07-19 14:02:00,92.1,73.1,29.83,SE,126,1.5,4.6,54,0.00,CLR,,0.00,WeatherDisplay:10.37,2013-07-19 19:02:00,
2013-07-19 14:07:00,92.5,73.4,29.83,ESE,113,2.5,4.6,54,0.00,CLR,,0.00,WeatherDisplay:10.37,2013-07-19 19:07:00,
2013-07-19 14:12:00,92.1,73.6,29.83,South,176,1.2,8.1,55,0.00,CLR,,0.00,WeatherDisplay:10.37,2013-07-19 19:12:00,
2013-07-19 14:17:00,91.8,73.3,29.82,SE,131,5.0,8.1,55,0.00,CLR,,0.00,WeatherDisplay:10.37,2013-07-19 19:17:00,
2013-07-19 14:22:00,91.8,73.3,29.81,West,272,2.9,4.6,55,0.00,CLR,,0.00,WeatherDisplay:10.37,2013-07-19 19:22:00,
2013-07-19 14:27:00,92.1,73.6,29.81,ESE,111,2.7,8.1,55,0.00,CLR,,0.00,WeatherDisplay:10.37,2013-07-19 19:27:00,
2013-07-19 14:32:00,91.8,73.9,29.81,SE,127,6.0,7.5,56,0.00,CLR,,0.00,WeatherDisplay:10.37,2013-07-19 19:32:00,
2013-07-19 14:37:00,91.6,73.7,29.81,South,180,5.7,9.2,56,0.00,CLR,,0.00,WeatherDisplay:10.37,2013-07-19 19:37:00,
2013-07-19 14:42:00,91.4,73.0,29.81,ESE,115,1.5,5.8,55,0.00,CLR,,0.00,WeatherDisplay:10.37,2013-07-19 19:42:00,
2013-07-19 14:47:00,91.8,73.9,29.81,SSE,147,4.5,6.0,56,0.00,CLR,,0.00,WeatherDisplay:10.37,2013-07-19 19:47:00,
2013-07-19 14:52:00,91.4,74.0,29.80,East,95,4.1,4.1,57,0.00,CLR,,0.00,WeatherDisplay:10.37,2013-07-19 19:52:00,
2013-07-19 14:57:00,91.4,73.5,29.80,South,173,0.4,4.6,56,0.00,CLR,,0.00,WeatherDisplay:10.37,2013-07-19 19:57:00,
2013-07-19 15:02:00,91.6,74.2,29.80,ESE,103,1.8,4.6,57,0.00,CLR,,0.00,WeatherDisplay:10.37,2013-07-19 20:02:00,
2013-07-19 15:07:00,91.8,73.9,29.80,ESE,113,1.1,13.8,56,0.00,CLR,,0.00,WeatherDisplay:10.37,2013-07-19 20:07:00,
2013-07-19 15:12:00,91.8,73.9,29.80,SE,144,1.0,4.6,56,0.00,CLR,,0.00,WeatherDisplay:10.37,2013-07-19 20:12:00,
2013-07-19 15:17:00,92.1,73.6,29.80,South,175,4.5,8.1,55,0.00,CLR,,0.00,WeatherDisplay:10.37,2013-07-19 20:17:00,
2013-07-19 15:22:00,91.8,73.3,29.79,SSE,153,3.4,4.6,55,0.00,CLR,,0.00,WeatherDisplay:10.37,2013-07-19 20:22:00,
2013-07-19 15:27:00,91.8,73.3,29.79,SSE,165,4.7,10.4,55,0.00,CLR,,0.00,WeatherDisplay:10.37,2013-07-19 20:27:00,
2013-07-19 15:32:00,91.6,73.1,29.79,South,175,7.8,13.8,55,0.00,CLR,,0.00,WeatherDisplay:10.37,2013-07-19 20:32:00,
2013-07-19 15:37:00,91.6,74.2,29.79,ESE,120,2.0,8.1,57,0.00,CLR,,0.00,WeatherDisplay:10.37,2013-07-19 20:37:00,
2013-07-19 15:42:00,91.8,74.4,29.79,SE,146,0.0,1.1,57,0.00,CLR,,0.00,WeatherDisplay:10.37,2013-07-19 20:42:00,
2013-07-19 15:47:00,92.1,73.6,29.79,South,185,1.7,4.6,55,0.00,CLR,,0.00,WeatherDisplay:10.37,2013-07-19 20:47:00,
2013-07-19 15:52:00,92.1,74.1,29.78,ESE,104,2.1,3.5,56,0.00,CLR,,0.00,WeatherDisplay:10.37,2013-07-19 20:52:00,
2013-07-19 15:57:00,92.3,73.2,29.78,SE,140,3.4,8.1,54,0.00,CLR,,0.00,WeatherDisplay:10.37,2013-07-19 20:57:00,
2013-07-19 16:02:00,92.1,73.1,29.78,NE,52,0.8,9.2,54,0.00,CLR,,0.00,WeatherDisplay:10.37,2013-07-19 21:02:00,
2013-07-19 16:07:00,92.3,73.2,29.78,West,269,6.6,6.6,54,0.00,CLR,,0.00,WeatherDisplay:10.37,2013-07-19 21:07:00,
2013-07-19 16:12:00,92.5,73.4,29.78,ESE,113,3.0,5.8,54,0.00,CLR,,0.00,WeatherDisplay:10.37,2013-07-19 21:12:00,
2013-07-19 16:17:00,92.5,73.4,29.78,ESE,110,2.2,4.6,54,0.00,CLR,,0.00,WeatherDisplay:10.37,2013-07-19 21:17:00,
2013-07-19 16:22:00,92.3,72.7,29.77,South,171,3.7,5.8,53,0.00,CLR,,0.00,WeatherDisplay:10.37,2013-07-19 21:22:00,
2013-07-19 16:27:00,92.1,73.1,29.77,SE,139,1.3,4.6,54,0.00,CLR,,0.00,WeatherDisplay:10.37,2013-07-19 21:27:00,
2013-07-19 16:32:00,91.8,73.3,29.77,SSW,196,3.4,5.8,55,0.00,CLR,,0.00,WeatherDisplay:10.37,2013-07-19 21:32:00,
2013-07-19 16:37:00,91.8,73.9,29.77,West,275,0.9,3.5,56,0.00,CLR,,0.00,WeatherDisplay:10.37,2013-07-19 21:37:00,
2013-07-19 16:42:00,92.1,73.6,29.77,South,175,1.2,4.6,55,0.00,CLR,,0.00,WeatherDisplay:10.37,2013-07-19 21:42:00,
2013-07-19 16:47:00,91.4,73.0,29.77,SE,136,3.8,3.8,55,0.00,CLR,,0.00,WeatherDisplay:10.37,2013-07-19 21:47:00,
2013-07-19 16:52:00,91.2,73.3,29.77,SE,127,0.5,1.5,56,0.00,CLR,,0.00,WeatherDisplay:10.37,2013-07-19 21:52:00,
2013-07-19 16:57:00,91.2,73.3,29.77,South,171,0.0,3.5,56,0.00,CLR,,0.00,WeatherDisplay:10.37,2013-07-19 21:57:00,
2013-07-19 17:02:00,91.4,73.5,29.77,SE,128,1.0,1.5,56,0.00,CLR,,0.00,WeatherDisplay:10.37,2013-07-19 22:02:00,
2013-07-19 17:07:00,91.4,73.5,29.77,East,94,0.2,1.1,56,0.00,CLR,,0.00,WeatherDisplay:10.37,2013-07-19 22:07:00,
2013-07-19 17:12:00,91.4,73.5,29.76,SE,146,1.8,4.5,56,0.00,CLR,,0.00,WeatherDisplay:10.37,2013-07-19 22:12:00,
2013-07-19 17:17:00,91.4,74.0,29.76,SE,142,0.9,1.5,57,0.00,CLR,,0.00,WeatherDisplay:10.37,2013-07-19 22:17:00,
2013-07-19 17:22:00,91.2,73.8,29.77,SSW,193,0.6,5.8,57,0.00,CLR,,0.00,WeatherDisplay:10.37,2013-07-19 22:22:00,
2013-07-19 17:27:00,91.2,73.8,29.76,East,101,1.4,1.4,57,0.00,CLR,,0.00,WeatherDisplay:10.37,2013-07-19 22:27:00,
2013-07-19 17:32:00,91.4,73.5,29.76,SE,146,2.4,4.5,56,0.00,CLR,,0.00,WeatherDisplay:10.37,2013-07-19 22:32:00,
2013-07-19 17:37:00,91.2,73.3,29.76,SE,131,0.4,3.5,56,0.00,CLR,,0.00,WeatherDisplay:10.37,2013-07-19 22:37:00,
2013-07-19 17:42:00,90.7,72.8,29.76,SSW,212,1.0,3.5,56,0.00,CLR,,0.00,WeatherDisplay:10.37,2013-07-19 22:42:00,
2013-07-19 17:47:00,90.5,73.7,29.75,NW,322,0.2,1.5,58,0.00,CLR,,0.00,WeatherDisplay:10.37,2013-07-19 22:47:00,
2013-07-19 17:53:00,90.5,73.2,29.75,SE,131,3.7,4.6,57,0.00,CLR,,0.00,WeatherDisplay:10.37,2013-07-19 22:53:00,
2013-07-19 17:58:00,90.5,73.7,29.76,South,175,0.8,3.5,58,0.00,CLR,,0.00,WeatherDisplay:10.37,2013-07-19 22:58:00,
2013-07-19 18:03:00,90.5,73.7,29.75,SSE,150,0.5,1.1,58,0.00,CLR,,0.00,WeatherDisplay:10.37,2013-07-19 23:03:00,
2013-07-19 18:08:00,90.7,73.9,29.75,SSE,165,0.3,1.5,58,0.00,CLR,,0.00,WeatherDisplay:10.37,2013-07-19 23:08:00,
2013-07-19 18:13:00,90.3,73.5,29.75,South,190,1.5,3.5,58,0.00,CLR,,0.00,WeatherDisplay:10.37,2013-07-19 23:13:00,
2013-07-19 18:18:00,90.3,73.5,29.76,SE,135,2.9,5.8,58,0.00,CLR,,0.00,WeatherDisplay:10.37,2013-07-19 23:18:00,
2013-07-19 18:23:00,90.1,73.8,29.76,ESE,103,0.0,0.0,59,0.00,CLR,,0.00,WeatherDisplay:10.37,2013-07-19 23:23:00,
2013-07-19 18:28:00,90.1,73.3,29.75,SE,133,1.7,3.5,58,0.00,CLR,,0.00,WeatherDisplay:10.37,2013-07-19 23:28:00,
2013-07-19 18:33:00,89.7,74.0,29.76,East,92,1.5,3.5,60,0.00,CLR,,0.00,WeatherDisplay:10.37,2013-07-19 23:33:00,
2013-07-19 18:38:00,89.5,73.8,29.76,SE,128,0.1,3.5,60,0.00,CLR,,0.00,WeatherDisplay:10.37,2013-07-19 23:38:00,
2013-07-19 18:43:00,89.5,73.8,29.76,South,178,0.4,1.1,60,0.00,CLR,,0.00,WeatherDisplay:10.37,2013-07-19 23:43:00,
2013-07-19 18:48:00,89.3,74.1,29.76,ENE,76,0.0,1.1,61,0.00,CLR,,0.00,WeatherDisplay:10.37,2013-07-19 23:48:00,
2013-07-19 18:53:00,89.3,74.1,29.76,South,170,0.0,0.0,61,0.00,CLR,,0.00,WeatherDisplay:10.37,2013-07-19 23:53:00,
2013-07-19 18:58:00,89.0,73.8,29.76,East,79,0.2,1.1,61,0.00,CLR,,0.00,WeatherDisplay:10.37,2013-07-19 23:58:00,
2013-07-19 19:03:00,88.6,73.9,29.76,ESE,104,0.6,1.1,62,0.00,CLR,,0.00,WeatherDisplay:10.37,2013-07-20 00:03:00,
2013-07-19 19:08:00,88.2,74.0,29.76,ESE,104,0.1,1.1,63,0.00,CLR,,0.00,WeatherDisplay:10.37,2013-07-20 00:08:00,
2013-07-19 19:13:00,88.0,74.3,29.76,ESE,104,0.0,0.0,64,0.00,CLR,,0.00,WeatherDisplay:10.37,2013-07-20 00:13:00,
2013-07-19 19:18:00,87.6,74.4,29.76,ESE,105,0.9,3.5,65,0.00,CLR,,0.00,WeatherDisplay:10.37,2013-07-20 00:18:00,
2013-07-19 19:23:00,87.2,74.0,29.76,ESE,113,0.6,3.5,65,0.00,CLR,,0.00,WeatherDisplay:10.37,2013-07-20 00:23:00,
2013-07-19 19:28:00,86.7,74.0,29.76,ESE,113,0.0,0.0,66,0.00,CLR,,0.00,WeatherDisplay:10.37,2013-07-20 00:28:00,
2013-07-19 19:33:00,86.5,74.2,29.76,East,86,0.1,1.1,67,0.00,CLR,,0.00,WeatherDisplay:10.37,2013-07-20 00:33:00,
2013-07-19 19:38:00,86.3,74.0,29.76,SSE,165,0.9,3.5,67,0.00,CLR,,0.00,WeatherDisplay:10.37,2013-07-20 00:38:00,
2013-07-19 19:43:00,86.1,74.3,29.76,SSE,165,0.0,0.0,68,0.00,CLR,,0.00,WeatherDisplay:10.37,2013-07-20 00:43:00,
2013-07-19 19:48:00,85.9,74.1,29.76,SE,143,0.1,3.5,68,0.00,CLR,,0.00,WeatherDisplay:10.37,2013-07-20 00:48:00,
2013-07-19 19:53:00,85.7,74.4,29.76,SE,144,0.0,0.0,69,0.00,CLR,,0.00,WeatherDisplay:10.37,2013-07-20 00:53:00,
2013-07-19 19:58:00,85.5,73.7,29.76,SE,127,0.0,0.0,68,0.00,CLR,,0.00,WeatherDisplay:10.37,2013-07-20 00:58:00,
2013-07-19 20:03:00,85.3,74.0,29.76,SSW,198,0.0,0.0,69,0.00,CLR,,0.00,WeatherDisplay:10.37,2013-07-20 01:03:00,
2013-07-19 20:08:00,85.3,74.0,29.76,SE,132,0.0,1.1,69,0.00,CLR,,0.00,WeatherDisplay:10.37,2013-07-20 01:08:00,
2013-07-19 20:13:00,84.9,73.6,29.76,ESE,116,0.1,1.1,69,0.00,CLR,,0.00,WeatherDisplay:10.37,2013-07-20 01:13:00,
2013-07-19 20:18:00,84.9,73.6,29.76,ESE,114,0.1,0.0,69,0.00,CLR,,0.00,WeatherDisplay:10.37,2013-07-20 01:18:00,
2013-07-19 20:23:00,84.7,73.4,29.76,ESE,114,0.0,0.0,69,0.00,CLR,,0.00,WeatherDisplay:10.37,2013-07-20 01:23:00,
2013-07-19 20:28:00,84.5,73.2,29.76,ENE,66,0.0,0.0,69,0.00,CLR,,0.00,WeatherDisplay:10.37,2013-07-20 01:28:00,
2013-07-19 20:33:00,84.3,73.0,29.76,ENE,66,0.0,0.0,69,0.00,CLR,,0.00,WeatherDisplay:10.37,2013-07-20 01:33:00,
2013-07-19 20:38:00,84.1,72.8,29.76,ENE,66,0.0,0.0,69,0.00,CLR,,0.00,WeatherDisplay:10.37,2013-07-20 01:38:00,
2013-07-19 20:43:00,84.0,73.2,29.76,ENE,69,0.1,0.0,70,0.00,CLR,,0.00,WeatherDisplay:10.37,2013-07-20 01:43:00,
2013-07-19 20:48:00,83.8,73.0,29.76,SSE,150,0.1,0.0,70,0.00,CLR,,0.00,WeatherDisplay:10.37,2013-07-20 01:48:00,
2013-07-19 20:53:00,83.8,73.4,29.76,SE,146,0.0,0.0,71,0.00,CLR,,0.00,WeatherDisplay:10.37,2013-07-20 01:53:00,
2013-07-19 20:58:00,83.6,73.2,29.76,ESE,113,0.9,3.5,71,0.00,CLR,,0.00,WeatherDisplay:10.37,2013-07-20 01:58:00,
2013-07-19 21:03:00,83.6,73.2,29.76,SE,141,0.0,0.0,71,0.00,CLR,,0.00,WeatherDisplay:10.37,2013-07-20 02:03:00,
2013-07-19 21:08:00,83.4,73.0,29.76,SE,140,0.2,3.0,71,0.00,CLR,,0.00,WeatherDisplay:10.37,2013-07-20 02:08:00,
2013-07-19 21:13:00,83.4,73.0,29.76,East,98,0.3,3.5,71,0.00,CLR,,0.00,WeatherDisplay:10.37,2013-07-20 02:13:00,
2013-07-19 21:18:00,83.2,72.8,29.77,East,98,0.0,0.0,71,0.00,CLR,,0.00,WeatherDisplay:10.37,2013-07-20 02:18:00,
2013-07-19 21:23:00,83.0,72.6,29.77,SE,132,0.1,1.1,71,0.00,CLR,,0.00,WeatherDisplay:10.37,2013-07-20 02:23:00,
2013-07-19 21:28:00,82.8,72.4,29.77,SSE,155,0.1,1.1,71,0.00,CLR,,0.00,WeatherDisplay:10.37,2013-07-20 02:28:00,
2013-07-19 21:33:00,82.8,72.8,29.78,SSE,155,0.0,0.0,72,0.00,CLR,,0.00,WeatherDisplay:10.37,2013-07-20 02:33:00,
2013-07-19 21:38:00,82.8,72.8,29.78,East,88,2.0,4.6,72,0.00,CLR,,0.00,WeatherDisplay:10.37,2013-07-20 02:38:00,
2013-07-19 21:43:00,82.8,72.8,29.78,SE,144,0.0,1.1,72,0.00,CLR,,0.00,WeatherDisplay:10.37,2013-07-20 02:43:00,
2013-07-19 21:48:00,82.8,72.8,29.78,SE,126,0.2,1.1,72,0.00,CLR,,0.00,WeatherDisplay:10.37,2013-07-20 02:48:00,
2013-07-19 21:53:00,82.6,72.7,29.78,ESE,120,1.4,3.5,72,0.00,CLR,,0.00,WeatherDisplay:10.37,2013-07-20 02:53:00,
2013-07-19 21:58:00,82.6,72.7,29.78,ESE,120,0.0,0.0,72,0.00,CLR,,0.00,WeatherDisplay:10.37,2013-07-20 02:58:00,
2013-07-19 22:03:00,82.4,72.9,29.78,South,171,3.3,8.1,73,0.00,CLR,,0.00,WeatherDisplay:10.37,2013-07-20 03:03:00,
2013-07-19 22:08:00,82.4,72.9,29.78,SE,146,0.3,3.5,73,0.00,CLR,,0.00,WeatherDisplay:10.37,2013-07-20 03:08:00,
2013-07-19 22:13:00,82.2,72.7,29.78,SW,214,0.0,3.5,73,0.00,CLR,,0.00,WeatherDisplay:10.37,2013-07-20 03:13:00,
2013-07-19 22:18:00,82.2,73.1,29.78,SW,219,0.2,4.6,74,0.00,CLR,,0.00,WeatherDisplay:10.37,2013-07-20 03:18:00,
2013-07-19 22:23:00,82.0,72.9,29.78,SE,145,0.4,1.1,74,0.00,CLR,,0.00,WeatherDisplay:10.37,2013-07-20 03:23:00,
2013-07-19 22:28:00,81.8,72.7,29.78,ESE,112,1.2,9.2,74,0.00,CLR,,0.00,WeatherDisplay:10.37,2013-07-20 03:28:00,
2013-07-19 22:33:00,81.6,72.5,29.78,SSE,150,1.1,4.6,74,0.00,CLR,,0.00,WeatherDisplay:10.37,2013-07-20 03:33:00,
2013-07-19 22:38:00,81.6,72.5,29.78,SE,135,3.2,9.2,74,0.00,CLR,,0.00,WeatherDisplay:10.37,2013-07-20 03:38:00,
2013-07-19 22:43:00,81.4,72.3,29.79,SW,215,1.1,3.5,74,0.00,CLR,,0.00,WeatherDisplay:10.37,2013-07-20 03:43:00,
2013-07-19 22:48:00,81.4,72.7,29.78,SSW,200,0.8,3.5,75,0.00,CLR,,0.00,WeatherDisplay:10.37,2013-07-20 03:48:00,
2013-07-19 22:53:00,81.2,72.5,29.78,ENE,62,0.2,1.5,75,0.00,CLR,,0.00,WeatherDisplay:10.37,2013-07-20 03:53:00,
2013-07-19 22:58:00,81.1,72.4,29.78,East,100,0.6,1.5,75,0.00,CLR,,0.00,WeatherDisplay:10.37,2013-07-20 03:58:00,
2013-07-19 23:01:00,81.1,72.4,29.78,East,98,0.1,1.1,75,0.00,CLR,,0.00,WeatherDisplay:10.37,2013-07-20 04:01:00,
2013-07-19 23:06:00,80.9,72.6,29.78,East,97,0.4,0.0,76,0.00,CLR,,0.00,WeatherDisplay:10.37,2013-07-20 04:06:00,
2013-07-19 23:11:00,80.7,72.4,29.78,ESE,123,0.1,1.1,76,0.00,CLR,,0.00,WeatherDisplay:10.37,2013-07-20 04:11:00,
2013-07-19 23:16:00,80.7,72.4,29.78,West,262,0.3,1.1,76,0.00,CLR,,0.00,WeatherDisplay:10.37,2013-07-20 04:16:00,
2013-07-19 23:21:00,80.5,72.2,29.78,ESE,109,2.1,4.6,76,0.00,CLR,,0.00,WeatherDisplay:10.37,2013-07-20 04:21:00,
2013-07-19 23:26:00,80.5,72.6,29.78,SE,144,0.2,0.0,77,0.00,CLR,,0.00,WeatherDisplay:10.37,2013-07-20 04:26:00,
2013-07-19 23:31:00,80.3,72.4,29.78,ESE,103,1.2,1.2,77,0.00,CLR,,0.00,WeatherDisplay:10.37,2013-07-20 04:31:00,
2013-07-19 23:36:00,80.3,72.4,29.78,SE,128,1.2,4.6,77,0.00,CLR,,0.00,WeatherDisplay:10.37,2013-07-20 04:36:00,
2013-07-19 23:41:00,80.1,72.2,29.78,SSE,148,1.0,3.0,77,0.00,CLR,,0.00,WeatherDisplay:10.37,2013-07-20 04:41:00,
2013-07-19 23:46:00,80.1,72.2,29.78,West,277,1.2,3.5,77,0.00,CLR,,0.00,WeatherDisplay:10.37,2013-07-20 04:46:00,
2013-07-19 23:51:00,80.1,72.2,29.78,SSE,161,1.7,1.7,77,0.00,CLR,,0.00,WeatherDisplay:10.37,2013-07-20 04:51:00,
2013-07-19 23:56:00,79.9,72.0,29.77,East,90,2.1,4.6,77,0.00,CLR,,0.00,WeatherDisplay:10.37,2013-07-20 04:56:00,